Regional Weather Roundup
Issued by NWS Jackson, KY

Home | Current Version | Previous Version | Graphics & Text | Print | Product List | Glossary On
Versions: 1 2 3 4 5 6 7 8 9 10 11 12 13 14 15 16 17 18 19 20 21 22 23 24 25 26 27
000
ASUS43 KJKL 222210
RWRJKL

EAST KENTUCKY HOURLY WEATHER ROUNDUP
NATIONAL WEATHER SERVICE JACKSON KY
600 PM EDT TUE MAY 22 2018

NOTE: "FAIR" INDICATES FEW OR NO CLOUDS BELOW 12,000 FEET WITH
NO SIGNIFICANT WEATHER AND/OR OBSTRUCTIONS TO VISIBILITY.

* THESE REPORTS ARE NOT UNDER NWS QUALITY CONTROL AND MAY NOT
  REPORT WEATHER SUCH AS PRECIPITATION AND FOG.

KYZ079-080-083-085-087-088-110-112-115-119-120-222300
...EASTERN KENTUCKY...

CITY           SKY/WX    TMP DP  RH WIND       PRES   REMARKS
JACKSON          N/A     75  70  84 CALM      30.04F
LONDON         LGT RAIN  71  69  93 SW6       30.06S
SOMERSET*      PTSUNNY   70  70 100 MISG      30.07F
MONTICELLO*    TSTM      70  68  93 W8        30.08S
WILLIAMSBURG*    N/A     68  68 100 CALM      30.08R
MIDDLESBORO*   PTSUNNY   77  69  75 NW3       30.07R
HARLAN APT*      N/A     77  66  68 SW5       30.07S
PIKE CO APT*     N/A     69  69 100 CALM      30.06F
BIG SANDY APT*   N/A     72  71  95 CALM      30.04F
MOREHEAD APT*    N/A     75  66  73 SW8       30.03S
ASHLAND*         N/A     79  71  76 SW5       29.98F
$$

KYZ035-036-041-042-044-050-067-078-099-222300
...CENTRAL KENTUCKY...

CITY           SKY/WX    TMP DP  RH WIND       PRES   REMARKS
MT STERLING*     N/A     77  70  78 SW5       30.03
FLEMING/MASON*   N/A     80  69  70 SW3       30.00F
DANVILLE*        N/A     77  68  73 SW8       30.05R
LEXINGTON        N/A     80  68  66 SW10      30.02S
FRANKFORT        N/A     81  67  62 S9        29.99S
LOUISVILLE       N/A     84  69  60 SW8       29.96F
LEBANON*         N/A     79  68  69 S10       30.02S
GLASGOW*         N/A     70  69  96 CALM      30.04R
BOWLING GREEN    N/A     76  69  79 S3        30.01S
$$

KYZ091>093-OHZ055-061-077-WVZ005-015-034-035-042-222300
...SOUTHERN OHIO/WEST VIRGINIA...

CITY           SKY/WX    TMP DP  RH WIND       PRES   REMARKS
COVINGTON        N/A     81  68  64 S12       29.96F
COLUMBUS       PTSUNNY   81  65  58 SW14G22   29.92F THUNDER
DAYTON         PTSUNNY   81  68  64 W15       29.96S
WILMINGTON     PTSUNNY   78  69  73 SW7       29.95F
HUNTINGTON       N/A     76  68  76 S9        30.00F
CHARLESTON     PTSUNNY   70  66  87 S7        30.03S
PINEVILLE*     LGT RAIN  70  69  95 MISG      30.13R
BECKLEY        LGT RAIN  66  60  81 SW6       30.12R
BLUEFIELD      CLOUDY    69  65  86 W5        30.13R
LOGAN CO APT*  DRIZZLE   70  68  94 CALM      30.07R
$$

VAZ002-007-008-TNZ017-027-036-066-071-222300
...SOUTHWEST VIRGINIA/EAST TENNESSEE...

CITY           SKY/WX    TMP DP  RH WIND       PRES   REMARKS
WISE*          CLOUDY    73  63  68 SW5       30.13S
JONESVILLE*    LGT RAIN  73  68  83 SW8       30.09R
ABINGDON*      CLOUDY    79  63  57 W9        30.09S
BRISTOL        PTSUNNY   75  67  76 SE9       30.07R
MORRISTOWN*    MOCLDY    79  66  65 N8        30.05R
SEVIERVILLE*   MOCLDY    82  68  61 NW5       30.04S
KNOXVILLE      PTSUNNY   80  68  66 CALM      30.03R
LAFOLLETTE*    CLOUDY    75  68  78 NE6       30.09R
OAK RIDGE      CLOUDY    82  68  62 CALM      30.04R
CROSSVILLE     PTSUNNY   74  68  81 E3        30.08S
NASHVILLE      LGT RAIN  76  71  85 SW6       30.01S
$$

...KEY TO REMARKS...
VSB - VISIBILITY IN MILES
WCI - WIND CHILL INDEX
HX  - HEAT INDEX

$$




USA.gov is the U.S. government's official web portal to all federal, state and local government web resources and services.